Wind_Speed
10 9 9 9 11 11 12 12 12 11 11 11 11 11 10 10 9 9 9 9 8 8 8 8 9 11 13 16 17 18 18 18 18 19 19 21 22 21 20 20 20 19 19 19 18 18 17 17 17 17 17 18 18 19 19 19 18 18 17 17 16 16 15 15 14 14 14 14 14 14 14 15 15 16 16 17 17 17 17 17 17 17 17 17 16
10 9 9 10 10 10 10 11 11 11 11 11 10 9 9 9 9 9 9 9 8 8 8 8 8 9 11 13 15 16 16 16 17 18 19 21 21 22 22 21 20 19 18 18 18 17 17 17 17 17 18 18 19 20 20 20 20 20 19 19 19 18 18 17 17 16 16 15 15 14 15 15 15 16 16 17 17 18 18 18 19 19 19 19 19
10 10 10 10 9 9 9 10 10 11 11 10 9 8 8 8 9 9 8 8 8 9 9 8 8 8 9 10 12 13 13 14 15 16 18 19 20 22 22 22 21 19 18 17 17 17 17 17 17 17 17 18 19 20 20 21 21 21 21 20 20 20 20 19 19 19 18 18 17 16 15 15 15 16 17 17 17 18 18 18 18 19 19 20 20
11 10 10 10 10 10 10 10 10 10 9 8 7 8 8 8 8 8 8 8 8 9 9 9 8 8 8 9 10 11 11 12 14 16 17 17 19 21 22 21 21 19 18 17 17 16 16 16 16 16 17 18 19 20 20 20 21 21 20 21 21 21 21 21 21 21 21 20 19 19 18 17 17 17 17 17 17 18 18 18 18 19 19 19 19
11 10 10 10 10 10 10 10 9 8 7 7 7 8 8 8 8 8 8 8 8 8 9 9 9 8 8 8 8 9 10 11 13 16 16 16 17 19 20 20 20 19 18 17 16 16 15 15 14 15 16 18 19 19 19 20 20 20 20 20 20 21 22 22 22 23 23 22 22 21 20 20 19 19 18 17 17 17 18 18 19 19 19 19 19
12 12 11 10 9 9 9 8 7 7 7 7 7 7 8 8 8 8 8 8 8 9 9 9 9 9 8 7 7 7 8 10 12 13 14 14 15 16 17 17 17 17 17 16 16 15 14 14 14 14 16 16 17 18 18 19 19 19 19 20 20 21 21 22 23 23 24 24 24 23 23 22 22 21 20 19 19 18 18 18 18 18 19 19 20
13 12 12 11 9 9 8 7 7 7 7 7 7 7 7 7 8 8 8 9 9 9 9 9 8 8 8 7 6 6 7 8 9 8 10 11 12 13 14 14 15 15 15 15 15 15 15 14 13 15 16 16 16 17 17 18 19 19 19 20 20 21 21 22 23 24 24 25 25 25 24 24 23 23 22 21 21 20 20 19 19 19 19 19 19
13 13 12 11 10 9 8 8 7 7 7 6 6 7 7 7 8 8 9 9 9 10 10 8 8 8 7 6 6 6 6 7 6 5 7 8 10 11 11 12 13 13 13 13 14 14 14 14 13 14 15 15 16 16 17 17 18 19 19 20 20 21 22 22 23 24 25 25 26 26 26 25 25 24 23 23 22 22 22 21 21 20 20 20 20
13 13 13 12 11 10 9 8 8 7 6 6 6 7 7 7 8 8 9 9 9 10 9 8 7 7 7 7 7 7 6 5 5 6 7 7 7 8 9 9 10 11 12 12 12 13 13 14 13 13 14 14 15 15 15 16 17 17 18 18 19 20 20 21 22 23 24 25 26 27 26 26 25 25 24 24 23 23 23 22 22 22 22 21 21
13 13 13 12 11 11 9 9 8 8 7 6 7 8 8 8 9 9 9 9 9 9 9 7 7 7 7 7 6 7 6 5 6 7 6 6 5 7 7 6 6 7 8 9 11 12 12 13 12 12 13 13 13 14 14 15 16 16 16 16 17 17 18 18 19 20 21 22 24 25 26 25 25 24 24 24 23 23 23 23 23 22 22 22 22
13 13 13 13 12 11 10 10 9 8 8 7 8 8 8 9 9 9 9 8 9 9 8 7 7 7 7 7 6 6 5 3 5 6 5 5 5 6 7 6 5 5 5 7 10 11 11 11 11 11 12 12 13 14 14 15 15 16 15 16 15 15 16 17 18 18 19 19 19 21 22 23 23 23 23 23 24 24 24 24 23 23 23 23 23
14 14 14 14 13 12 11 11 10 9 9 9 9 9 8 9 8 8 8 8 8 8 8 7 6 7 7 7 5 5 4 1 3 4 4 5 6 7 8 8 7 6 6 7 8 9 10 11 11 11 11 12 13 14 14 15 15 15 15 15 15 16 16 17 17 16 16 16 16 16 18 20 21 22 22 23 23 24 24 24 23 24 23 23 23
15 15 15 15 14 13 12 12 11 10 10 10 9 9 8 8 8 8 7 7 7 7 8 7 6 6 7 6 5 4 3 1 2 3 4 6 7 7 8 9 8 8 8 8 8 9 10 11 11 11 10 11 12 12 13 13 13 13 14 14 15 15 15 15 15 14 14 14 14 14 15 16 18 19 20 21 21 21 21 21 21 21 22 22 22
16 16 16 16 15 14 13 12 11 10 10 10 9 9 8 8 8 8 7 7 7 7 7 7 6 6 6 6 5 4 2 1 2 3 5 6 7 7 7 8 8 8 9 9 9 9 9 9 10 9 9 10 11 11 11 11 12 12 12 12 13 13 13 13 13 13 13 13 13 13 13 14 15 16 17 18 19 19 19 18 18 18 18 19 20
17 17 17 16 16 15 14 13 11 11 10 10 9 9 9 9 8 8 7 6 6 6 6 6 6 6 6 6 5 4 3 3 3 4 5 6 6 6 6 6 6 7 7 7 7 7 8 8 8 8 9 10 10 11 11 11 11 11 11 11 12 12 12 12 12 12 11 11 11 11 12 12 12 12 13 14 15 16 16 16 16 16 16 17 18
18 18 17 16 16 15 14 13 12 11 10 10 10 9 9 9 9 8 7 6 6 5 5 5 6 6 6 6 5 5 4 4 4 4 5 5 5 5 6 5 6 6 6 7 7 7 8 8 9 9 10 11 11 11 11 12 12 12 12 12 12 13 13 13 14 13 13 13 13 12 11 11 12 12 12 12 13 13 13 14 14 15 15 15 15
19 18 17 17 16 15 14 13 11 11 11 11 10 10 11 10 10 9 7 6 6 6 5 5 5 5 5 6 5 5 4 5 5 5 5 5 5 6 7 7 8 8 8 8 8 9 9 10 11 12 13 13 13 13 13 13 14 14 14 14 15 15 16 16 16 16 16 16 16 15 14 14 14 14 13 13 13 12 12 13 13 13 13 14 14
20 19 18 17 17 16 14 13 12 12 12 12 11 12 12 12 11 9 7 6 6 6 6 6 6 6 6 6 6 5 4 4 5 5 4 5 6 7 8 8 9 9 9 9 9 10 11 12 13 14 14 15 15 15 15 15 15 16 16 17 17 17 17 18 18 18 18 18 18 18 17 17 17 16 15 15 14 14 14 14 15 15 14 14 15
20 19 18 18 18 16 15 14 14 13 13 12 12 12 13 13 11 10 9 8 7 7 7 6 6 7 7 7 6 5 4 4 4 4 5 6 6 7 7 8 8 8 8 9 10 11 12 12 13 14 15 15 16 16 16 16 16 17 17 17 17 17 18 19 19 20 20 20 20 20 20 19 19 19 18 18 17 16 16 16 17 16 16 16 16
20 20 19 19 18 17 16 16 15 14 13 13 13 13 13 13 12 11 10 9 8 8 8 8 8 8 7 7 7 6 6 6 6 6 6 6 6 7 7 7 7 7 8 9 10 11 11 12 13 13 14 15 16 17 17 17 17 18 18 18 17 18 18 19 20 21 21 21 21 21 21 21 20 20 20 19 19 18 18 18 18 17 18 18 19
20 20 20 20 19 18 17 16 16 15 14 14 13 13 13 13 12 11 10 10 8 8 9 10 10 10 9 8 8 8 7 7 7 7 7 7 7 7 7 7 7 7 8 8 9 10 11 12 12 13 13 14 15 16 17 17 18 18 18 18 18 18 19 21 22 23 23 22 22 22 22 22 21 21 20 20 20 20 20 20 19 19 20 20 21
21 21 21 20 20 19 18 17 16 15 15 14 14 14 14 13 13 12 12 11 10 9 9 10 11 12 11 11 10 9 9 8 8 8 8 7 7 7 7 7 7 8 8 9 9 10 11 11 11 12 12 13 14 15 16 17 17 18 18 18 19 19 21 22 23 23 23 23 23 22 22 22 21 21 21 21 21 21 20 20 20 21 21 22 22
22 22 21 20 20 19 18 17 16 16 15 15 14 14 14 14 14 14 13 12 11 10 10 10 11 12 12 12 11 11 10 10 9 9 8 8 7 7 7 7 7 8 8 9 10 10 11 11 11 11 12 12 13 14 15 16 16 17 18 18 19 20 20 21 21 22 23 23 23 22 22 21 21 20 20 21 21 21 20 20 20 20 21 22 22
22 22 21 20 19 18 18 18 17 17 16 15 14 14 15 15 15 14 14 13 12 11 10 11 11 11 12 12 12 11 11 10 10 9 8 7 7 6 7 7 8 8 9 10 10 11 11 11 11 11 11 12 12 13 14 15 16 17 17 18 18 19 19 19 20 21 21 22 22 22 22 21 20 19 19 19 19 19 19 19 19 19 19 19 20
23 22 21 20 19 18 18 18 18 18 16 15 14 14 15 15 15 15 14 13 11 9 9 10 11 11 11 11 12 11 11 11 10 9 8 7 6 6 7 8 9 9 10 10 11 11 11 11 11 11 12 12 13 14 14 15 16 16 17 18 18 19 19 19 19 20 20 21 21 21 21 21 20 19 18 18 17 17 17 17 17 17 17 17 17
23 22 21 20 18 17 17 18 18 17 16 14 14 14 15 15 16 15 14 11 10 9 9 9 10 11 11 11 11 10 10 10 9 8 7 6 6 7 8 9 9 10 10 10 11 11 11 11 12 12 13 13 14 15 15 16 17 18 18 19 19 20 20 20 20 20 20 21 21 21 21 21 21 20 19 19 18 17 17 17 16 16 16 16 16
23 21 20 18 16 16 16 17 18 17 15 14 14 14 14 14 15 15 13 11 10 10 11 11 11 11 11 11 10 10 10 9 8 7 6 6 6 7 8 9 10 10 11 11 12 12 12 13 13 14 14 15 16 17 17 18 19 20 20 21 21 21 21 21 21 21 21 21 21 21 21 21 21 21 20 19 18 18 17 17 17 17 16 16 16
20 19 17 16 14 15 16 17 17 16 15 14 13 13 13 13 14 14 14 12 12 12 13 13 12 12 12 11 11 10 10 9 7 7 7 7 8 9 10 10 11 12 12 13 13 13 14 14 15 15 16 17 18 18 19 20 20 21 21 21 21 21 20 20 20 20 20 20 20 20 20 21 21 21 20 19 18 18 17 17 17 17 17 17 17
18 17 15 14 13 14 15 16 16 16 14 13 13 12 12 13 13 13 13 13 13 13 13 13 13 12 12 12 11 11 10 9 8 8 8 9 10 11 12 12 13 14 14 14 14 14 15 15 15 16 16 17 17 18 18 19 19 19 19 19 19 20 20 19 19 19 19 19 19 19 20 20 20 20 20 19 18 18 17 17 17 17 17 17 17
16 16 16 15 15 15 16 16 16 16 14 12 11 11 12 12 13 13 12 12 12 13 13 13 13 13 12 12 11 11 10 10 10 10 10 11 12 13 13 14 14 15 15 14 14 15 15 14 14 13 13 14 14 15 15 16 17 17 17 18 18 19 19 19 19 19 19 19 19 19 19 20 20 20 20 19 19 18 18 17 17 17 17 17 17
16 17 17 17 17 17 16 16 17 16 14 11 10 9 11 12 12 12 12 12 12 12 13 13 13 13 12 12 12 11 12 12 12 12 12 12 13 13 14 14 15 15 15 14 14 13 13 12 11 11 11 11 12 13 14 15 15 16 16 17 17 18 19 19 19 19 19 19 20 20 20 20 21 20 20 20 20 19 19 18 18 18 18 18 18
18 18 18 18 17 17 17 16 16 17 15 13 11 10 10 11 12 12 12 12 13 13 14 14 14 13 13 13 13 13 14 14 13 13 13 13 13 13 14 14 14 15 14 13 12 12 11 11 10 10 10 11 12 13 15 16 16 16 16 16 17 18 18 19 19 20 20 21 21 21 22 22 22 22 22 22 22 21 21 21 20 20 20 20 20
19 18 16 15 15 15 15 15 16 17 17 16 15 13 13 13 12 12 13 14 14 15 15 15 15 14 14 14 15 15 15 15 14 14 14 13 13 13 14 14 14 14 13 13 12 12 12 12 11 11 12 13 14 15 16 17 17 17 16 16 17 18 18 19 20 21 22 23 23 24 24 24 24 25 25 25 25 25 24 24 24 23 23 23 24
17 16 14 13 13 13 13 14 15 16 17 18 17 16 15 15 15 14 15 15 16 16 17 16 16 16 15 16 16 16 16 16 15 15 14 14 13 13 14 14 14 14 14 14 14 14 14 14 14 14 15 16 16 17 17 17 17 17 16 17 17 18 19 20 21 22 24 25 26 26 27 27 27 27 27 27 28 29 29 29 29 29 29 29 29
17 16 15 14 13 13 13 13 14 15 17 17 17 17 16 16 17 17 17 17 18 18 18 18 18 17 17 17 17 16 16 16 16 16 16 15 14 14 15 15 15 15 15 15 16 16 17 17 17 17 17 17 17 17 17 17 17 17 17 18 18 19 20 21 22 23 24 26 27 28 28 29 29 29 29 30 31 32 33 33 34 35 36 36 37
19 17 17 16 16 15 14 14 14 15 17 17 17 16 17 17 18 19 19 20 20 20 20 20 19 19 19 18 17 17 16 17 17 17 17 16 16 16 16 16 16 16 17 18 18 19 19 18 18 17 17 16 16 16 16 16 17 17 18 18 19 20 21 21 22 23 23 24 26 27 28 29 30 31 32 33 34 35 36 37 38 40 41 42 43
21 20 19 18 17 17 16 15 16 17 18 19 20 19 18 18 19 20 20 20 21 21 21 20 20 20 20 19 18 18 18 18 19 18 18 18 19 18 18 17 18 19 20 20 21 20 20 18 17 16 15 14 14 15 16 17 18 18 19 19 20 20 21 22 22 23 23 24 25 26 27 28 28 30 31 33 34 36 38 39 41 42 44 46 47
22 21 21 19 18 18 17 17 17 19 20 21 22 22 20 19 19 20 20 20 21 21 21 20 20 20 20 20 20 20 20 20 19 19 19 20 20 20 20 20 21 22 22 23 22 22 21 19 18 17 16 16 17 18 19 20 21 21 21 21 21 23 24 24 25 26 26 27 27 28 28 28 27 28 29 31 33 35 37 39 41 43 45 46 48
22 21 21 20 20 20 19 19 19 20 21 22 22 22 20 19 20 20 19 19 20 20 20 20 20 20 21 21 21 22 21 21 20 21 21 21 21 22 23 24 25 25 25 25 24 24 23 22 20 20 20 20 21 22 23 23 24 24 24 24 24 24 25 26 28 30 31 32 32 32 32 31 30 29 30 31 32 34 35 37 39 41 43 46 48
24 22 21 21 20 21 20 20 20 20 21 22 22 21 20 20 20 20 19 19 19 19 19 19 20 20 21 22 22 22 22 22 22 22 23 23 24 25 26 27 27 27 26 26 26 26 25 25 24 24 24 25 25 26 27 27 27 27 27 27 27 27 27 28 29 31 34 36 38 38 37 36 34 33 32 33 34 35 36 38 39 41 43 45 47
28 26 25 23 21 21 21 20 20 20 20 21 21 20 20 20 20 20 20 19 19 19 19 19 20 21 22 23 23 24 24 24 24 24 24 25 26 28 28 29 29 28 28 28 28 28 28 28 29 29 29 29 30 30 31 30 30 30 30 30 30 29 30 30 31 33 34 37 40 42 43 41 39 37 36 36 38 39 40 41 42 43 44 45 47
30 30 30 28 25 23 23 21 19 18 18 18 18 19 19 20 20 20 20 20 20 20 20 20 21 22 23 24 25 25 26 26 26 26 26 27 28 29 29 30 30 29 29 29 29 30 30 31 31 32 32 32 32 33 33 33 33 33 33 32 31 31 32 33 34 36 38 40 42 44 44 44 42 41 39 39 41 43 44 45 45 46 46 46 48
32 32 32 34 31 26 23 22 19 17 16 15 15 17 19 20 21 21 21 21 22 22 22 22 23 24 26 27 28 28 28 28 28 28 29 29 30 30 30 30 30 30 30 31 31 31 32 32 32 33 33 34 34 36 36 36 36 35 35 34 34 34 35 37 39 40 42 44 45 45 45 45 45 43 41 42 44 46 47 48 49 48 48 48 49
30 31 33 37 34 27 23 22 19 17 16 15 15 16 19 21 22 22 23 23 24 24 24 25 26 27 29 30 31 31 31 31 30 30 31 31 31 31 31 32 32 32 32 33 33 33 34 34 35 35 36 36 37 37 38 38 39 39 38 38 37 37 38 40 43 45 47 48 47 46 45 46 46 44 43 44 47 48 49 50 51 51 50 50 51
22 24 28 31 28 24 23 22 20 19 18 17 17 19 21 23 24 25 25 25 25 26 26 27 29 30 31 32 33 33 33 33 33 33 34 34 34 34 34 34 35 35 35 35 36 36 37 37 37 38 38 39 39 39 39 40 41 41 41 41 41 41 42 43 46 48 50 51 50 49 47 47 47 46 45 47 49 50 51 52 53 52 51 51 53
18 19 22 24 23 22 22 22 21 22 22 21 21 21 22 24 25 26 27 27 27 28 28 30 31 32 34 34 35 36 36 36 36 36 37 37 37 37 37 37 38 38 38 38 39 39 40 40 40 40 41 42 42 42 42 42 42 43 43 43 43 43 44 45 47 49 50 51 52 51 49 48 48 48 47 50 52 53 54 55 54 52 52 53 57
17 18 20 21 22 22 21 21 22 24 24 24 24 23 23 24 25 26 27 28 29 30 30 31 33 34 36 37 38 38 38 38 38 38 39 39 39 39 39 40 41 41 41 41 41 42 43 43 44 44 44 44 44 44 44 43 44 43 43 43 44 44 44 45 45 46 49 52 53 52 51 50 50 50 50 52 54 55 55 55 53 53 54 58 62
18 18 20 20 21 21 21 22 23 24 26 27 27 26 26 25 26 26 28 29 31 32 32 33 34 35 37 38 39 40 40 40 40 40 41 41 41 41 42 42 43 44 44 44 44 45 46 46 47 48 48 48 47 46 45 45 44 44 44 45 45 46 46 46 44 44 49 54 57 56 55 53 51 50 51 54 54 54 55 54 54 55 59 63 67
19 20 21 21 22 22 23 24 25 26 27 28 29 30 30 29 29 29 30 31 32 33 34 35 36 37 38 39 40 41 41 42 42 43 43 43 43 44 45 46 47 47 48 49 50 50 51 52 52 53 52 51 50 48 48 47 46 45 46 47 48 49 49 48 46 46 50 58 62 61 58 54 50 50 52 53 53 53 53 54 55 59 63 66 67
20 21 22 22 23 24 26 27 28 28 28 30 32 34 35 35 35 34 34 34 34 35 36 37 38 39 40 41 42 43 44 45 46 47 47 47 47 48 49 50 50 51 53 54 54 55 55 56 57 57 57 55 53 51 50 49 48 47 48 49 50 51 51 51 49 48 52 59 61 58 54 50 48 49 50 51 51 51 53 56 59 62 64 64 62
22 24 25 26 27 29 30 31 30 29 29 31 34 36 38 39 39 39 39 39 39 39 39 40 41 42 44 45 46 47 48 49 50 51 52 53 54 54 54 54 53 54 56 57 58 58 58 58 59 59 58 57 55 53 52 51 51 50 51 52 52 53 54 54 52 49 51 56 58 55 50 46 46 48 49 50 52 54 56 59 61 60 60 59 58
Wind_Direction
258 251 245 246 250 252 250 245 244 249 257 266 272 274 276 278 281 283 284 284 283 278 270 263 260 262 267 271 273 274 275 275 274 271 267 264 263 261 257 254 252 251 250 250 251 251 251 251 251 253 256 259 261 264 266 268 270 271 271 270 269 268 266 264 262 261 259 259 258 258 258 258 258 258 257 256 255 253 252 252 252 253 255 257 260
245 238 236 242 247 245 239 231 232 243 256 264 265 265 267 270 274 278 281 285 286 283 281 278 278 277 275 276 276 276 277 276 275 271 267 263 261 258 254 251 250 250 249 249 249 249 249 249 249 250 253 256 258 260 261 263 265 267 269 270 271 271 271 271 271 270 268 266 265 264 263 262 261 261 261 260 259 258 256 255 255 255 256 257 259
241 235 234 237 239 238 231 227 235 249 257 258 256 256 259 264 270 275 281 286 288 289 292 294 296 294 289 286 284 281 279 277 275 271 266 262 258 255 252 250 249 248 249 248 248 247 247 247 248 249 251 253 255 256 257 259 261 262 265 267 270 271 272 273 272 272 270 269 268 267 266 265 264 263 263 262 262 262 262 261 260 260 259 259 259
240 237 237 238 240 240 235 235 243 248 249 248 248 251 255 261 268 274 281 286 288 293 298 301 304 305 302 297 289 284 281 277 273 266 261 257 254 252 250 249 248 248 249 249 249 248 248 247 248 249 251 252 253 254 256 257 259 261 263 266 268 270 271 272 272 271 271 270 269 268 267 267 266 265 265 265 266 266 266 266 265 264 264 263 262
240 241 241 244 246 241 234 234 238 238 238 239 241 249 256 262 269 275 280 285 290 297 299 302 307 310 309 304 294 285 279 276 271 263 255 249 249 249 247 245 246 248 248 249 249 249 248 247 248 250 252 253 255 256 257 258 260 261 262 264 266 267 270 271 273 273 273 273 271 271 269 269 269 269 269 269 268 268 267 267 268 268 268 268 267
242 243 244 246 245 236 229 229 226 224 229 233 240 250 259 267 273 277 281 287 294 298 297 300 308 314 317 315 303 289 280 279 275 264 250 243 243 244 243 243 244 247 248 249 249 247 247 249 253 255 255 256 256 257 258 260 261 263 264 265 266 267 268 269 271 272 273 273 273 272 271 271 271 271 271 271 272 272 271 271 270 271 271 270 270
241 242 244 246 241 232 226 223 219 220 225 231 242 253 263 271 277 282 284 289 293 293 292 297 308 317 323 321 308 293 286 288 282 259 238 233 238 242 245 248 249 251 252 252 250 247 245 249 255 260 259 258 258 259 261 263 264 265 266 266 267 267 267 268 269 270 272 273 273 273 272 272 271 272 273 274 275 276 276 276 275 273 273 272 271
238 240 241 240 235 229 225 222 221 222 226 232 246 257 266 275 280 284 286 287 289 289 290 299 309 316 322 318 310 303 298 294 273 235 226 235 244 250 251 255 258 256 254 254 250 246 243 245 253 260 262 261 261 262 263 265 265 266 266 267 267 268 269 270 271 272 272 273 272 272 272 272 273 274 275 276 277 278 279 279 278 277 276 275 274
235 237 238 235 231 230 229 228 228 231 236 244 255 263 270 276 280 282 284 285 286 287 293 303 309 311 312 311 315 319 309 282 249 232 242 249 248 253 255 258 263 257 253 254 249 244 241 244 253 261 264 264 264 265 265 266 266 266 266 268 271 273 275 276 277 278 277 275 273 272 272 272 273 275 276 278 279 280 280 279 279 278 278 277 277
234 236 236 234 233 233 233 234 237 243 250 255 260 265 270 271 274 277 280 284 285 287 293 302 307 305 304 308 322 333 318 272 241 236 243 243 241 259 269 272 273 263 256 252 244 243 243 248 260 267 267 266 266 267 267 267 267 267 270 274 278 281 282 283 284 284 283 281 276 272 271 271 273 274 276 278 279 280 280 280 279 278 277 277 277
233 234 234 233 233 234 235 237 241 247 254 257 260 261 262 264 267 272 277 282 283 285 291 298 304 302 301 310 329 344 333 272 230 224 224 234 248 266 279 286 289 280 262 247 241 244 248 255 264 268 268 269 270 271 270 268 268 269 274 280 282 284 285 286 288 289 288 288 282 274 270 269 271 273 275 277 278 279 279 279 278 278 278 277 277
231 231 232 232 233 235 237 240 244 249 255 259 263 261 258 258 262 268 274 279 280 281 286 294 302 303 301 311 331 349 354 308 208 219 235 254 263 269 272 275 279 278 264 250 246 250 259 266 268 266 269 273 275 275 273 272 271 274 279 281 282 283 285 286 288 290 291 292 287 276 268 267 268 270 273 275 277 277 277 277 278 277 278 277 277
231 232 234 234 236 237 238 241 245 251 258 262 264 263 260 257 259 262 268 271 271 275 283 289 296 299 300 308 322 338 356 27 203 230 253 264 271 274 273 271 271 271 266 261 262 266 270 274 274 272 273 276 277 276 275 276 278 281 283 283 283 284 284 285 288 290 290 290 287 280 273 270 271 272 273 275 276 278 278 279 280 279 278 278 277
232 234 236 237 237 238 239 239 243 249 255 260 263 262 261 257 255 254 257 260 264 271 278 284 290 294 297 302 307 310 319 305 254 251 259 268 275 276 276 277 274 272 271 271 273 274 274 277 279 279 278 277 276 275 274 278 282 285 285 286 286 285 285 285 289 293 292 291 291 287 284 281 280 279 279 279 279 280 280 282 284 284 282 280 279
235 236 237 238 238 238 239 239 241 246 251 258 261 261 260 257 254 251 251 255 261 267 271 277 285 290 292 293 293 291 287 271 263 266 271 275 278 274 274 278 277 274 272 273 275 275 276 279 278 275 274 274 274 273 273 275 279 282 283 285 286 285 284 284 288 294 296 297 296 294 291 288 287 288 290 290 286 284 282 282 284 285 284 284 283
236 236 236 237 238 238 238 238 241 247 254 260 261 260 257 255 254 253 254 257 262 265 267 269 276 283 285 283 280 277 276 270 264 265 271 276 280 280 280 279 278 279 278 280 282 281 280 281 281 279 278 278 279 279 278 278 280 283 285 285 285 284 284 284 285 289 292 293 293 295 294 291 293 296 298 297 294 291 289 286 285 285 286 288 288
235 234 233 234 234 234 235 237 243 250 257 259 258 256 255 254 253 256 259 260 262 264 265 260 258 262 267 267 267 267 270 268 260 257 263 271 275 277 282 284 284 286 289 290 291 291 289 289 290 291 292 292 291 290 289 289 290 292 292 291 289 288 287 288 288 289 290 291 291 292 293 295 298 298 297 295 293 290 290 289 287 285 286 287 287
232 230 229 230 229 230 232 236 242 248 252 254 254 252 252 253 255 259 261 258 256 259 260 255 247 245 246 248 252 253 257 257 256 256 257 261 265 269 277 281 283 285 289 292 294 296 295 294 295 295 296 296 297 297 296 296 296 296 296 294 293 293 292 293 294 293 293 294 294 293 294 298 299 297 296 295 292 289 288 288 287 283 281 284 287
228 227 227 226 227 228 232 236 240 243 246 249 250 249 250 253 256 259 260 257 255 253 252 251 247 245 242 242 243 239 237 242 245 245 244 248 257 265 271 273 277 281 285 289 290 291 291 292 293 294 296 297 298 298 298 297 298 298 297 295 294 293 295 297 299 298 297 296 296 295 295 296 297 296 296 294 292 289 289 289 288 284 281 284 289
227 226 225 225 227 230 233 237 239 241 244 246 248 248 249 253 257 261 263 263 261 255 252 250 249 250 248 244 241 235 230 231 232 231 232 236 244 251 258 262 268 275 279 283 284 285 287 288 289 292 294 296 297 298 298 298 298 299 298 296 294 293 295 298 300 300 299 298 297 297 297 297 296 295 294 293 292 290 289 288 286 284 284 286 289
227 226 226 227 230 232 234 236 239 241 242 244 244 246 249 255 260 264 267 269 266 260 255 251 249 250 251 248 243 237 232 230 231 231 231 235 243 250 259 266 271 274 278 281 283 285 286 287 288 290 292 294 296 298 299 300 301 302 302 301 299 298 299 300 302 302 301 300 300 299 299 299 298 296 294 293 291 290 289 288 286 284 284 286 287
228 228 229 232 235 237 238 238 239 241 241 241 241 243 249 257 263 267 269 270 269 264 258 253 250 248 248 247 245 241 237 233 233 234 235 240 248 256 263 270 275 278 280 281 282 283 284 285 286 288 291 294 297 300 301 302 303 305 306 306 305 304 303 304 305 305 304 304 303 301 299 298 297 296 295 294 293 292 290 288 287 285 285 285 285
229 230 233 238 241 243 243 241 240 240 240 239 240 244 250 256 262 266 268 269 269 267 260 256 253 250 248 246 246 245 242 241 241 240 241 244 250 257 263 269 273 276 276 276 277 279 280 284 286 289 293 296 299 301 302 302 303 305 306 307 307 307 307 307 307 307 307 307 306 304 303 300 298 296 294 294 294 293 292 290 288 285 284 284 285
232 234 237 242 246 246 246 243 240 238 238 238 241 247 252 255 258 263 267 270 271 269 263 257 256 254 251 249 248 248 248 249 250 250 249 251 256 263 266 270 272 272 274 275 278 282 285 289 292 295 298 300 301 301 301 301 302 304 305 306 307 308 308 309 309 309 309 309 308 307 306 305 303 301 298 295 293 292 291 291 290 288 287 286 286
237 238 241 245 248 248 246 243 240 237 236 238 244 250 254 255 257 260 265 268 270 270 266 259 257 256 254 251 249 249 250 252 255 256 257 260 266 271 272 274 276 277 280 284 287 289 292 295 298 300 301 301 301 301 301 303 304 305 306 306 307 308 309 309 310 310 310 310 310 310 309 309 308 306 304 300 297 294 292 292 291 291 291 289 288
241 243 245 246 245 244 245 243 240 239 238 243 249 254 257 258 258 258 258 261 266 269 269 265 260 256 252 249 246 246 248 251 254 257 261 267 271 274 277 280 284 288 292 293 294 297 300 303 304 305 305 304 305 306 307 309 310 310 310 310 311 311 310 310 310 309 309 310 310 310 310 310 310 308 307 305 303 301 299 298 296 294 293 293 292
243 244 242 240 240 242 244 243 243 243 243 248 255 261 263 262 259 253 249 252 261 266 268 267 261 253 248 246 243 242 243 245 249 256 263 270 276 280 286 291 295 297 298 298 299 302 305 307 308 308 309 309 310 312 312 313 313 313 313 313 313 312 311 310 310 311 311 311 311 310 309 309 309 308 308 307 305 303 301 300 298 297 295 294 293
242 240 239 239 242 245 245 245 245 245 248 253 261 267 268 264 257 250 246 249 258 263 265 264 259 251 246 243 242 242 243 246 251 262 272 280 285 289 292 295 295 295 295 296 298 301 302 303 305 307 308 310 311 312 312 312 312 313 313 313 311 311 310 311 312 314 314 313 312 311 310 308 308 307 306 304 303 301 299 296 295 294 293 292 291
240 242 247 248 247 248 249 249 247 247 251 258 265 269 268 264 256 251 249 251 256 259 259 258 255 250 246 246 247 249 252 257 264 272 279 285 288 289 290 290 290 290 291 292 294 295 295 297 299 301 304 307 309 310 310 310 311 312 312 312 311 311 311 312 314 315 315 315 314 313 312 310 308 306 304 301 299 296 293 291 290 287 286 285 285
241 246 250 250 252 255 254 251 249 248 251 257 265 271 270 267 260 255 253 253 253 254 253 253 252 250 250 251 254 258 263 267 270 273 276 280 282 283 285 286 286 287 287 289 288 288 288 289 292 296 300 303 305 306 307 308 310 311 312 313 313 312 313 314 316 316 316 315 314 313 312 310 306 303 300 298 295 292 289 288 287 285 284 284 284
248 246 246 250 254 257 255 252 249 247 249 252 260 270 274 272 266 261 257 254 251 249 249 250 250 251 253 255 259 263 265 266 266 268 272 275 277 278 280 282 281 281 281 282 282 280 280 282 285 290 294 296 299 301 304 306 308 310 311 312 312 311 312 313 314 314 314 313 311 310 309 306 303 300 297 293 290 288 286 286 286 287 289 290 293
254 250 250 253 255 256 255 252 249 247 247 250 257 266 271 273 271 265 259 254 252 249 249 250 251 253 256 259 261 262 262 262 264 266 268 270 273 275 276 276 276 275 274 275 276 276 278 281 283 288 291 294 298 300 302 304 306 308 309 309 308 307 307 308 309 310 309 308 307 306 304 302 300 298 295 291 289 287 286 285 285 287 290 293 298
254 253 253 255 256 256 253 250 248 248 249 253 259 264 267 270 269 265 258 253 252 251 250 250 252 254 257 259 261 262 262 263 263 264 265 267 271 273 273 272 270 270 270 272 274 275 277 280 283 286 290 292 294 296 298 300 302 304 305 306 305 303 303 304 305 307 307 306 306 304 303 300 298 296 293 290 288 287 287 286 286 287 288 291 294
248 250 251 255 258 259 255 250 248 249 252 256 259 263 265 267 266 264 260 256 254 253 251 251 252 254 256 259 261 263 264 264 263 262 263 264 267 268 267 266 264 265 267 269 271 272 273 275 278 281 283 285 286 288 290 292 294 296 299 300 300 299 300 302 304 305 305 305 305 304 303 300 298 295 291 288 286 285 285 285 286 287 287 288 289
241 244 247 251 257 259 255 249 246 248 252 255 259 263 267 268 266 263 261 259 257 255 253 251 251 252 254 256 259 260 261 261 260 260 261 261 261 260 258 257 257 258 260 261 264 267 270 272 274 277 279 281 283 285 286 289 292 295 297 298 298 298 299 301 302 303 303 303 304 303 302 300 298 296 292 289 286 285 284 284 284 285 286 287 287
237 242 246 251 256 259 254 248 245 246 250 254 258 264 267 269 267 264 261 259 257 255 252 251 250 250 251 253 254 254 255 256 256 258 260 259 258 256 253 251 250 250 253 257 260 263 266 268 269 272 275 278 281 285 289 292 296 299 301 301 300 298 299 299 299 299 300 300 300 300 299 298 297 296 294 292 289 288 286 286 286 286 287 288 288
237 242 247 252 256 258 253 248 245 246 251 256 261 265 266 266 265 262 259 257 254 251 249 248 247 247 248 249 249 248 248 249 251 254 256 256 256 256 254 252 251 253 256 258 260 260 261 261 262 263 265 270 277 284 288 292 294 296 298 299 298 297 296 295 294 294 295 296 296 296 296 296 296 296 295 294 293 291 291 290 290 290 290 290 290
238 244 250 255 258 259 256 253 251 251 254 257 260 262 261 259 258 257 255 252 250 249 247 246 245 246 246 246 244 244 244 245 247 248 249 251 253 254 255 257 259 262 264 264 264 264 263 261 258 255 257 265 275 281 285 287 289 291 291 293 294 294 293 291 290 291 292 293 293 294 294 293 294 296 298 297 297 297 296 295 294 293 293 292 292
239 246 255 259 261 262 260 257 257 256 256 257 258 257 255 252 251 249 247 245 245 245 245 247 248 248 248 247 245 245 245 244 244 243 244 246 249 251 254 257 261 264 266 267 267 267 266 263 259 256 260 268 275 279 282 284 286 288 289 291 292 293 292 291 291 290 289 289 289 290 290 288 289 292 296 297 297 297 297 297 296 296 295 294 294
244 251 259 262 261 260 258 258 258 257 257 258 258 256 252 248 246 244 241 240 241 242 244 246 248 248 249 248 248 247 246 245 243 242 243 246 248 251 253 256 259 261 263 264 265 265 265 263 261 260 264 268 272 277 280 282 283 285 286 288 290 291 291 292 292 291 290 289 289 288 287 286 285 287 290 294 295 295 294 294 294 294 293 293 293
249 253 258 262 260 257 257 258 256 254 254 256 257 256 251 247 244 242 240 240 242 244 246 248 249 248 247 247 247 247 247 246 246 246 248 250 252 253 255 257 258 258 260 262 264 265 266 265 265 265 266 269 272 275 278 279 280 281 282 283 285 287 288 290 291 291 290 291 290 287 285 284 285 285 286 290 293 294 294 294 294 294 293 293 293
248 251 255 257 255 253 257 258 253 248 248 251 254 256 253 248 244 242 242 243 246 248 250 251 251 250 249 248 248 249 249 249 250 251 253 255 256 257 257 257 257 259 261 264 267 270 271 272 271 271 272 273 274 274 276 278 280 280 281 283 285 287 289 291 292 292 292 293 291 287 281 280 283 284 284 288 292 294 295 295 295 295 295 294 294
249 252 255 256 252 250 253 255 249 243 242 245 250 255 255 252 248 246 247 249 251 253 254 252 251 250 250 250 250 250 250 251 252 253 255 256 257 258 259 259 260 262 266 269 272 275 276 277 277 278 279 279 279 278 280 282 283 283 284 286 288 290 292 293 295 295 295 294 292 287 280 278 282 284 283 287 292 293 293 294 295 295 293 293 294
252 252 251 251 249 247 247 248 246 242 242 243 246 249 251 251 250 250 250 252 254 256 256 256 254 253 252 252 251 251 251 252 254 256 257 258 259 260 260 262 264 266 268 271 274 276 277 278 279 280 281 282 282 283 285 286 286 286 287 288 289 291 292 294 296 296 295 294 291 286 280 279 281 282 283 288 291 291 292 293 293 293 292 291 292
248 244 241 242 242 241 241 243 243 245 248 250 248 247 247 248 248 249 251 252 253 254 256 257 257 255 253 253 253 254 255 257 259 261 261 261 261 261 263 265 267 269 271 273 275 276 276 277 278 280 282 283 284 286 287 287 287 288 288 289 289 290 291 292 293 294 294 293 290 284 279 278 280 280 282 287 290 290 290 291 292 291 289 289 292
240 228 224 227 230 232 235 240 244 248 251 253 252 250 249 249 250 251 251 252 252 251 252 253 254 254 254 253 254 255 257 259 261 262 262 262 263 264 266 269 272 273 275 276 277 277 277 278 280 282 284 285 286 287 287 286 286 286 286 287 288 289 290 291 293 293 291 290 288 282 278 278 279 279 282 287 289 287 288 289 290 288 288 291 295
234 220 215 218 223 227 234 241 247 250 252 253 254 254 253 252 252 253 254 254 253 252 252 252 253 253 254 254 255 256 258 260 261 261 262 263 265 268 271 273 275 276 277 278 278 279 280 281 282 284 285 287 287 288 287 286 285 284 284 285 286 288 289 290 291 290 287 286 285 280 277 278 278 278 282 286 285 284 287 291 291 291 292 296 299
234 228 223 223 227 233 240 248 252 254 254 254 256 257 258 258 257 255 254 254 254 255 256 257 258 258 257 257 258 258 260 261 262 263 264 265 268 271 273 275 276 277 278 279 280 280 281 282 283 284 285 286 287 287 286 285 284 284 284 285 286 288 288 288 287 285 282 282 282 278 277 277 276 277 282 284 284 286 291 294 294 295 297 299 300
236 238 237 236 239 244 249 254 257 258 258 257 258 260 262 262 262 261 259 258 257 258 259 261 262 262 262 261 260 260 260 261 261 263 265 267 270 272 275 276 277 279 280 281 282 282 283 283 284 284 285 286 286 285 284 283 282 282 283 284 285 285 285 286 285 282 279 278 278 277 277 275 274 279 284 284 284 289 294 294 295 297 299 300 300
235 240 244 245 248 251 253 257 260 262 263 264 264 264 264 264 264 264 263 263 262 262 263 263 263 263 263 262 261 260 260 261 262 263 264 266 269 274 276 278 278 279 280 280 281 281 282 283 283 283 284 284 284 283 281 280 279 280 281 281 282 283 284 284 284 283 282 279 277 277 278 276 276 281 283 282 283 288 291 293 296 298 299 300 300
239 241 244 247 250 253 254 257 259 262 264 266 265 263 263 263 264 264 264 264 264 264 265 265 265 264 263 262 262 262 262 263 263 264 264 266 270 275 277 278 278 278 278 278 278 278 278 279 279 279 280 281 281 280 280 279 279 279 280 280 280 281 282 283 283 284 283 280 277 276 276 274 276 280 281 281 284 287 291 295 298 299 299 300 301
Height
5824 5824 5824 5825 5825 5825 5826 5826 5827 5827 5827 5827 5827 5827 5827 5827 5827 5827 5827 5828 5828 5828 5829 5829 5829 5828 5828 5827 5827 5828 5828 5829 5829 5829 5829 5829 5829 5829 5829 5830 5830 5831 5831 5832 5833 5834 5835 5836 5837 5837 5837 5837 5837 5837 5837 5838 5838 5838 5838 5839 5839 5839 5840 5840 5840 5840 5841 5841 5841 5842 5842 5842 5842 5843 5843 5843 5843 5843 5844 5844 5844 5845 5845 5845 5845
5822 5823 5823 5823 5824 5824 5825 5826 5826 5826 5826 5826 5826 5826 5826 5826 5826 5826 5826 5826 5826 5826 5826 5827 5827 5827 5827 5826 5826 5826 5826 5827 5827 5827 5827 5827 5827 5827 5827 5828 5828 5828 5829 5830 5831 5832 5833 5834 5835 5835 5835 5835 5835 5836 5836 5836 5837 5837 5837 5837 5837 5838 5838 5839 5839 5839 5840 5840 5840 5840 5841 5841 5841 5841 5841 5841 5841 5841 5842 5842 5843 5843 5843 5843 5844
5821 5822 5822 5823 5823 5824 5824 5825 5825 5825 5825 5825 5825 5825 5825 5825 5825 5825 5825 5825 5825 5825 5825 5825 5826 5826 5825 5825 5825 5825 5825 5825 5824 5824 5824 5825 5825 5825 5825 5826 5826 5827 5828 5829 5829 5830 5831 5832 5833 5833 5833 5833 5833 5834 5835 5835 5835 5835 5835 5836 5836 5836 5837 5837 5837 5837 5838 5838 5838 5838 5839 5839 5839 5839 5839 5839 5839 5840 5840 5840 5841 5841 5841 5842 5842
5820 5820 5821 5822 5822 5823 5824 5824 5824 5824 5824 5824 5824 5824 5824 5824 5824 5824 5824 5824 5824 5823 5823 5824 5824 5824 5824 5823 5823 5823 5823 5822 5822 5822 5821 5822 5823 5823 5823 5824 5824 5825 5826 5827 5828 5829 5829 5830 5830 5831 5831 5831 5831 5832 5833 5833 5834 5834 5834 5834 5834 5834 5834 5834 5835 5835 5835 5836 5836 5836 5836 5837 5837 5837 5837 5837 5838 5838 5838 5839 5839 5839 5839 5840 5840
5819 5819 5820 5821 5821 5822 5823 5823 5823 5823 5824 5824 5824 5823 5823 5823 5823 5823 5823 5823 5823 5822 5822 5823 5823 5823 5822 5822 5821 5821 5821 5820 5820 5819 5819 5820 5821 5821 5821 5822 5823 5823 5824 5825 5826 5827 5828 5828 5828 5829 5829 5829 5830 5831 5832 5832 5832 5833 5833 5833 5833 5833 5833 5832 5832 5833 5833 5833 5834 5834 5834 5835 5835 5835 5835 5836 5836 5836 5837 5837 5837 5837 5837 5838 5838
5818 5818 5819 5819 5820 5821 5822 5822 5823 5823 5823 5823 5823 5822 5822 5822 5822 5822 5822 5822 5822 5822 5822 5822 5822 5821 5821 5820 5819 5819 5819 5818 5818 5817 5817 5818 5819 5819 5819 5820 5821 5822 5823 5823 5824 5825 5826 5827 5827 5827 5827 5828 5828 5829 5830 5831 5831 5831 5831 5831 5831 5831 5831 5830 5830 5830 5830 5831 5831 5832 5832 5832 5832 5833 5833 5833 5834 5834 5835 5835 5835 5835 5835 5836 5836
5817 5817 5818 5818 5819 5820 5821 5821 5822 5822 5822 5822 5822 5821 5821 5821 5821 5821 5821 5821 5821 5821 5821 5821 5821 5820 5819 5818 5818 5818 5817 5817 5817 5816 5817 5817 5817 5818 5818 5819 5820 5821 5821 5822 5823 5824 5825 5825 5825 5826 5826 5827 5827 5828 5829 5829 5830 5830 5830 5830 5829 5829 5828 5828 5828 5828 5828 5829 5829 5829 5829 5829 5830 5830 5831 5831 5832 5832 5832 5833 5833 5833 5833 5833 5833
5815 5816 5816 5817 5817 5818 5819 5820 5820 5821 5821 5821 5821 5821 5821 5821 5821 5821 5820 5820 5820 5820 5821 5820 5820 5819 5818 5817 5817 5817 5817 5817 5816 5816 5816 5817 5817 5817 5818 5819 5819 5819 5820 5821 5821 5822 5823 5823 5824 5825 5825 5826 5826 5827 5828 5828 5828 5828 5828 5827 5827 5827 5827 5827 5827 5827 5827 5827 5827 5827 5827 5827 5827 5828 5828 5829 5829 5830 5830 5830 5831 5831 5831 5831 5831
5814 5814 5815 5815 5816 5817 5818 5818 5819 5819 5819 5820 5820 5820 5820 5820 5820 5820 5820 5820 5819 5820 5820 5819 5819 5817 5817 5816 5816 5816 5816 5816 5816 5816 5816 5817 5817 5817 5817 5818 5818 5818 5819 5819 5820 5821 5821 5822 5823 5824 5824 5825 5825 5826 5826 5827 5827 5826 5826 5826 5826 5826 5826 5826 5825 5825 5825 5824 5824 5824 5824 5825 5825 5825 5826 5827 5827 5827 5828 5828 5828 5828 5828 5828 5829
5813 5813 5813 5814 5815 5815 5816 5817 5818 5818 5818 5819 5819 5819 5819 5819 5819 5819 5819 5819 5819 5819 5819 5818 5817 5816 5816 5815 5815 5815 5814 5814 5815 5815 5816 5816 5816 5816 5816 5816 5816 5817 5818 5818 5819 5820 5821 5821 5822 5823 5824 5824 5824 5825 5825 5825 5825 5825 5825 5825 5825 5825 5825 5824 5824 5823 5823 5822 5822 5822 5822 5823 5823 5823 5824 5824 5825 5825 5825 5825 5825 5825 5825 5825 5826
5811 5812 5812 5813 5813 5814 5815 5816 5816 5817 5817 5817 5817 5817 5818 5818 5818 5818 5818 5818 5818 5818 5817 5817 5816 5816 5815 5814 5814 5814 5813 5813 5814 5815 5815 5815 5815 5815 5816 5816 5816 5816 5817 5818 5819 5819 5820 5821 5822 5822 5823 5823 5824 5823 5823 5823 5823 5823 5824 5824 5824 5823 5823 5822 5822 5821 5821 5820 5820 5819 5820 5820 5821 5821 5821 5822 5822 5822 5822 5822 5822 5822 5822 5823 5823
5810 5810 5811 5811 5812 5813 5814 5815 5815 5816 5816 5816 5816 5816 5816 5817 5817 5817 5817 5817 5817 5817 5816 5816 5816 5815 5814 5814 5814 5814 5813 5813 5813 5814 5815 5815 5815 5816 5816 5815 5816 5817 5818 5818 5819 5818 5819 5820 5821 5822 5822 5822 5822 5822 5822 5822 5822 5822 5822 5822 5822 5822 5821 5821 5820 5819 5819 5818 5817 5817 5817 5818 5818 5819 5819 5819 5819 5819 5819 5819 5819 5819 5820 5820 5820
5809 5809 5810 5810 5811 5812 5813 5813 5814 5814 5815 5815 5815 5815 5815 5815 5815 5815 5815 5815 5816 5816 5815 5815 5815 5814 5813 5813 5813 5813 5813 5813 5813 5814 5814 5814 5815 5816 5816 5816 5816 5817 5817 5818 5818 5817 5818 5819 5820 5821 5821 5821 5821 5821 5821 5821 5821 5821 5821 5821 5820 5820 5819 5819 5818 5818 5817 5816 5816 5815 5816 5816 5817 5817 5817 5817 5816 5816 5816 5816 5816 5816 5816 5817 5817
5808 5808 5808 5809 5810 5811 5811 5812 5812 5813 5813 5813 5813 5813 5813 5814 5814 5814 5814 5814 5814 5815 5814 5814 5814 5813 5812 5812 5813 5813 5813 5813 5813 5814 5814 5814 5815 5815 5815 5816 5816 5816 5816 5816 5816 5816 5817 5818 5819 5820 5820 5820 5820 5820 5819 5819 5819 5819 5819 5819 5819 5818 5818 5818 5817 5816 5816 5815 5815 5815 5815 5815 5815 5815 5815 5815 5814 5814 5814 5814 5813 5813 5813 5814 5814
5806 5806 5807 5808 5809 5809 5810 5811 5811 5812 5812 5812 5812 5812 5812 5812 5813 5813 5813 5813 5813 5813 5813 5813 5813 5812 5812 5812 5812 5813 5813 5813 5813 5813 5813 5813 5814 5814 5814 5815 5815 5815 5815 5815 5816 5816 5816 5817 5817 5818 5818 5818 5818 5818 5818 5818 5818 5818 5818 5817 5817 5817 5816 5816 5816 5816 5815 5815 5815 5814 5814 5814 5814 5814 5814 5813 5813 5812 5812 5812 5811 5811 5811 5811 5811
5804 5805 5806 5806 5807 5808 5809 5809 5810 5810 5810 5810 5811 5811 5811 5811 5812 5812 5812 5812 5812 5812 5812 5812 5812 5812 5811 5811 5811 5812 5812 5813 5813 5813 5813 5813 5813 5813 5813 5814 5814 5814 5814 5815 5815 5816 5816 5816 5817 5817 5817 5817 5817 5817 5817 5816 5816 5816 5816 5816 5816 5815 5815 5815 5815 5815 5815 5814 5814 5814 5813 5813 5813 5813 5813 5812 5811 5811 5810 5810 5810 5810 5809 5809 5809
5803 5803 5804 5805 5806 5806 5807 5808 5808 5809 5809 5809 5809 5809 5810 5810 5810 5810 5811 5811 5811 5811 5811 5811 5811 5811 5811 5811 5811 5811 5812 5812 5812 5812 5813 5813 5813 5813 5813 5813 5814 5814 5814 5815 5815 5816 5816 5816 5817 5817 5816 5816 5816 5816 5816 5816 5816 5815 5815 5815 5815 5815 5814 5814 5814 5814 5814 5814 5813 5813 5813 5812 5812 5812 5811 5811 5810 5810 5809 5809 5808 5808 5808 5807 5807
5801 5802 5802 5803 5804 5805 5806 5806 5807 5807 5808 5808 5808 5808 5808 5809 5809 5809 5809 5810 5810 5810 5810 5810 5811 5811 5810 5810 5810 5810 5811 5811 5811 5812 5812 5812 5813 5813 5813 5813 5814 5814 5814 5814 5815 5815 5816 5816 5816 5816 5816 5816 5816 5815 5815 5815 5815 5815 5814 5814 5814 5814 5813 5813 5813 5813 5813 5813 5812 5812 5812 5811 5811 5810 5810 5809 5809 5808 5808 5807 5807 5807 5806 5805 5805
5799 5800 5801 5802 5803 5804 5804 5805 5805 5806 5806 5806 5807 5807 5807 5807 5808 5808 5808 5809 5809 5809 5809 5809 5810 5810 5810 5810 5810 5810 5810 5810 5810 5811 5811 5811 5812 5812 5813 5813 5813 5813 5813 5814 5814 5814 5815 5815 5815 5814 5814 5814 5814 5814 5814 5814 5814 5814 5813 5813 5813 5813 5812 5812 5812 5811 5811 5811 5811 5811 5810 5810 5809 5809 5808 5808 5807 5807 5806 5806 5805 5805 5804 5804 5803
5798 5799 5800 5801 5802 5802 5803 5803 5804 5804 5805 5805 5805 5805 5806 5806 5806 5807 5807 5807 5808 5808 5808 5808 5808 5809 5809 5809 5809 5809 5809 5809 5809 5810 5810 5810 5811 5811 5811 5812 5812 5813 5813 5813 5813 5813 5813 5813 5813 5813 5813 5813 5812 5812 5812 5812 5812 5812 5812 5811 5811 5811 5811 5811 5810 5810 5810 5810 5809 5809 5809 5808 5808 5807 5807 5806 5806 5805 5804 5804 5804 5803 5803 5802 5802
5797 5798 5799 5800 5800 5801 5801 5802 5802 5803 5803 5804 5804 5804 5804 5804 5805 5805 5806 5806 5806 5806 5806 5806 5807 5807 5808 5808 5808 5808 5808 5808 5808 5809 5809 5809 5809 5810 5810 5811 5811 5811 5812 5812 5812 5812 5812 5812 5812 5812 5812 5812 5811 5811 5811 5811 5810 5810 5810 5810 5809 5809 5809 5809 5809 5809 5808 5808 5808 5807 5807 5806 5805 5805 5804 5804 5804 5803 5803 5802 5802 5801 5801 5800 5800
5796 5797 5798 5798 5799 5800 5800 5801 5801 5802 5802 5802 5802 5802 5802 5803 5803 5804 5804 5804 5805 5805 5805 5805 5805 5806 5806 5807 5807 5807 5807 5807 5807 5808 5808 5808 5808 5809 5809 5809 5810 5810 5810 5810 5811 5811 5811 5811 5811 5811 5811 5810 5810 5810 5809 5809 5809 5808 5808 5808 5808 5808 5808 5808 5807 5807 5806 5806 5805 5805 5804 5804 5803 5803 5802 5802 5801 5801 5800 5800 5799 5799 5798 5798 5797
5794 5796 5797 5797 5798 5798 5799 5799 5800 5800 5800 5801 5801 5801 5801 5801 5801 5802 5802 5803 5803 5804 5804 5804 5804 5805 5805 5806 5806 5806 5806 5806 5806 5807 5807 5807 5807 5807 5808 5808 5808 5808 5809 5809 5809 5809 5809 5809 5809 5809 5809 5809 5809 5808 5808 5807 5807 5807 5807 5807 5807 5807 5807 5806 5806 5805 5804 5804 5803 5803 5802 5802 5801 5801 5800 5800 5799 5798 5798 5798 5797 5797 5796 5796 5795
5793 5794 5795 5796 5797 5797 5798 5798 5798 5799 5799 5799 5799 5799 5799 5800 5800 5800 5801 5801 5802 5802 5803 5803 5803 5803 5804 5804 5804 5804 5804 5805 5805 5806 5806 5806 5806 5806 5806 5807 5807 5807 5807 5807 5807 5807 5808 5808 5808 5807 5807 5807 5807 5807 5806 5806 5806 5806 5805 5805 5805 5805 5805 5804 5804 5803 5803 5802 5802 5801 5800 5800 5799 5798 5798 5797 5797 5796 5796 5795 5795 5794 5794 5793 5792
5791 5793 5794 5794 5795 5795 5796 5796 5797 5797 5798 5798 5798 5798 5798 5798 5798 5799 5799 5800 5800 5801 5801 5802 5802 5802 5802 5802 5803 5803 5803 5804 5804 5804 5804 5804 5804 5805 5805 5805 5805 5805 5805 5806 5806 5806 5806 5806 5806 5805 5805 5805 5805 5805 5805 5805 5804 5804 5804 5804 5803 5803 5802 5802 5801 5801 5801 5800 5800 5799 5799 5798 5797 5797 5796 5795 5795 5794 5794 5793 5793 5792 5792 5791 5790
5790 5791 5792 5792 5793 5793 5794 5794 5795 5795 5796 5796 5796 5796 5796 5796 5796 5797 5798 5798 5799 5799 5800 5800 5801 5801 5801 5801 5801 5802 5802 5802 5803 5803 5803 5803 5803 5803 5803 5803 5803 5803 5804 5804 5804 5804 5804 5804 5804 5804 5804 5804 5804 5804 5803 5803 5803 5803 5802 5802 5802 5801 5800 5800 5799 5799 5798 5798 5798 5797 5797 5796 5796 5795 5794 5794 5793 5792 5792 5791 5791 5790 5790 5789 5789
5788 5789 5789 5790 5791 5791 5792 5793 5793 5794 5794 5795 5795 5795 5794 5794 5794 5795 5796 5797 5797 5798 5798 5799 5799 5800 5800 5800 5800 5800 5801 5801 5801 5802 5802 5801 5801 5801 5802 5802 5802 5802 5802 5802 5802 5802 5802 5802 5802 5802 5802 5802 5802 5802 5801 5801 5801 5801 5801 5800 5800 5799 5799 5798 5797 5797 5796 5796 5795 5795 5794 5794 5794 5793 5793 5792 5791 5791 5790 5789 5789 5788 5788 5787 5787
5786 5787 5787 5788 5789 5790 5790 5791 5791 5792 5793 5793 5793 5793 5793 5792 5792 5793 5794 5795 5796 5796 5797 5797 5798 5798 5799 5799 5799 5799 5799 5800 5800 5800 5800 5800 5800 5800 5800 5801 5801 5801 5801 5801 5801 5801 5800 5800 5800 5800 5800 5800 5800 5799 5799 5799 5799 5799 5799 5799 5798 5797 5797 5796 5796 5795 5795 5794 5794 5793 5793 5792 5792 5791 5791 5790 5790 5789 5788 5788 5787 5787 5786 5786 5785
5784 5785 5786 5786 5787 5788 5788 5789 5789 5790 5791 5791 5791 5791 5791 5791 5791 5791 5792 5793 5794 5795 5795 5796 5797 5797 5797 5797 5798 5798 5798 5798 5799 5799 5799 5799 5799 5799 5800 5800 5800 5800 5800 5800 5799 5799 5799 5799 5799 5798 5798 5798 5798 5797 5797 5797 5797 5797 5797 5797 5796 5796 5795 5794 5794 5793 5793 5792 5792 5791 5791 5790 5790 5789 5789 5788 5788 5787 5787 5786 5786 5785 5785 5784 5783
5782 5783 5784 5784 5785 5786 5786 5786 5787 5788 5789 5789 5789 5789 5789 5790 5790 5790 5791 5791 5792 5793 5794 5794 5795 5796 5796 5796 5796 5797 5797 5797 5797 5798 5798 5798 5798 5798 5798 5798 5798 5798 5798 5798 5798 5798 5798 5797 5797 5797 5796 5796 5796 5796 5795 5795 5795 5795 5795 5795 5794 5794 5793 5792 5792 5791 5791 5790 5789 5789 5789 5788 5788 5787 5787 5787 5786 5786 5785 5785 5784 5784 5783 5782 5782
5780 5781 5782 5783 5783 5784 5784 5784 5785 5786 5787 5787 5787 5788 5788 5788 5788 5789 5789 5790 5791 5791 5792 5793 5793 5794 5794 5794 5795 5795 5795 5796 5796 5796 5797 5797 5797 5797 5797 5797 5797 5797 5797 5797 5797 5797 5796 5796 5795 5795 5794 5794 5794 5794 5794 5793 5793 5793 5793 5793 5792 5792 5791 5790 5790 5789 5789 5788 5787 5787 5786 5786 5786 5785 5785 5785 5785 5784 5784 5783 5782 5782 5781 5780 5780
5778 5779 5780 5781 5781 5782 5782 5782 5783 5784 5785 5785 5785 5786 5786 5786 5787 5787 5787 5788 5789 5790 5790 5791 5791 5792 5792 5792 5793 5793 5794 5794 5795 5795 5795 5796 5796 5796 5796 5796 5796 5796 5795 5795 5795 5795 5795 5794 5794 5793 5793 5792 5792 5792 5791 5791 5791 5791 5791 5791 5790 5790 5789 5788 5788 5787 5787 5786 5785 5785 5784 5784 5783 5783 5783 5782 5782 5782 5781 5781 5780 5779 5779 5778 5777
5776 5777 5778 5779 5779 5779 5780 5780 5781 5782 5783 5783 5784 5784 5784 5784 5785 5785 5786 5786 5787 5788 5788 5789 5789 5790 5790 5791 5791 5792 5792 5792 5793 5793 5794 5794 5794 5794 5794 5795 5795 5794 5794 5794 5793 5793 5793 5792 5791 5791 5790 5790 5790 5790 5789 5789 5789 5788 5788 5788 5788 5787 5787 5786 5786 5785 5784 5783 5783 5782 5781 5781 5780 5780 5780 5779 5779 5778 5778 5778 5777 5777 5776 5776 5775
5774 5775 5776 5776 5776 5777 5777 5778 5778 5779 5780 5781 5782 5782 5782 5783 5783 5783 5784 5784 5785 5786 5786 5787 5787 5788 5789 5789 5790 5790 5790 5790 5791 5791 5791 5792 5792 5793 5793 5793 5793 5793 5792 5792 5791 5791 5790 5790 5789 5789 5788 5788 5788 5787 5787 5787 5787 5786 5786 5786 5785 5785 5785 5784 5784 5783 5782 5781 5780 5779 5779 5778 5778 5777 5777 5776 5776 5775 5775 5774 5773 5773 5773 5772 5772
5772 5772 5773 5774 5774 5775 5775 5775 5776 5777 5778 5779 5779 5780 5780 5780 5781 5781 5782 5783 5783 5784 5784 5785 5785 5786 5787 5787 5787 5788 5788 5788 5788 5788 5789 5790 5790 5791 5791 5791 5791 5791 5791 5790 5790 5789 5788 5788 5787 5786 5786 5785 5785 5785 5785 5785 5784 5784 5784 5783 5783 5782 5782 5782 5781 5780 5779 5778 5777 5776 5776 5775 5774 5774 5773 5773 5772 5772 5771 5770 5770 5769 5768 5768 5768
5770 5770 5771 5772 5772 5773 5773 5774 5774 5775 5776 5776 5777 5777 5778 5778 5779 5779 5780 5780 5781 5782 5782 5783 5783 5784 5784 5785 5785 5785 5785 5785 5786 5786 5786 5787 5787 5788 5788 5789 5789 5789 5789 5788 5788 5787 5786 5785 5785 5784 5784 5783 5783 5782 5782 5782 5782 5781 5781 5780 5780 5780 5779 5779 5779 5778 5777 5776 5775 5774 5773 5772 5771 5770 5770 5769 5768 5768 5767 5766 5765 5765 5764 5763 5762
5768 5769 5769 5770 5771 5771 5772 5772 5772 5773 5773 5774 5774 5775 5775 5776 5776 5777 5777 5778 5779 5779 5780 5780 5781 5781 5782 5782 5783 5783 5783 5783 5783 5784 5784 5784 5784 5784 5785 5785 5785 5786 5785 5785 5785 5784 5784 5783 5782 5782 5781 5781 5780 5780 5779 5779 5779 5778 5778 5777 5777 5777 5777 5776 5776 5775 5774 5773 5772 5771 5770 5769 5768 5767 5766 5765 5764 5763 5763 5762 5761 5760 5759 5758 5757
5766 5766 5767 5768 5768 5769 5769 5769 5769 5770 5771 5771 5772 5772 5772 5773 5773 5774 5775 5776 5776 5777 5778 5778 5779 5779 5780 5780 5780 5780 5781 5781 5781 5781 5781 5781 5781 5781 5782 5782 5782 5782 5782 5781 5781 5781 5780 5780 5779 5779 5779 5778 5778 5777 5777 5776 5776 5775 5775 5775 5774 5774 5773 5773 5773 5772 5771 5770 5769 5768 5766 5765 5764 5763 5762 5761 5760 5759 5758 5757 5756 5755 5754 5753 5752
5763 5763 5764 5765 5766 5766 5766 5766 5767 5767 5768 5768 5769 5769 5770 5770 5770 5771 5772 5773 5774 5775 5776 5776 5777 5777 5778 5778 5778 5778 5778 5778 5779 5779 5779 5779 5779 5779 5779 5779 5779 5778 5778 5778 5778 5778 5777 5777 5776 5776 5775 5775 5774 5774 5773 5773 5772 5772 5771 5771 5771 5771 5770 5770 5769 5769 5767 5766 5765 5764 5763 5762 5760 5760 5759 5758 5757 5756 5755 5753 5752 5751 5750 5748 5747
5760 5760 5761 5761 5762 5763 5763 5764 5764 5764 5765 5766 5766 5767 5767 5767 5768 5769 5770 5771 5772 5773 5774 5774 5775 5775 5776 5776 5776 5776 5776 5776 5776 5776 5776 5777 5776 5776 5776 5776 5776 5775 5775 5775 5774 5774 5774 5773 5773 5772 5772 5771 5770 5770 5769 5769 5769 5768 5768 5767 5767 5766 5766 5765 5765 5764 5763 5762 5761 5760 5759 5757 5756 5755 5754 5753 5752 5751 5750 5749 5748 5747 5746 5745 5743
5756 5757 5758 5758 5759 5760 5761 5761 5762 5762 5762 5763 5764 5764 5765 5765 5766 5766 5768 5769 5770 5770 5771 5772 5773 5773 5773 5774 5774 5774 5774 5774 5774 5774 5774 5774 5774 5774 5773 5773 5773 5772 5772 5771 5771 5771 5770 5770 5769 5768 5768 5767 5767 5766 5766 5765 5765 5764 5764 5763 5762 5762 5761 5761 5760 5759 5758 5757 5757 5755 5754 5752 5751 5750 5749 5748 5747 5746 5745 5743 5742 5741 5740 5739 5738
5752 5753 5754 5755 5757 5758 5759 5759 5759 5759 5760 5760 5761 5762 5763 5763 5764 5764 5765 5766 5767 5768 5769 5770 5770 5771 5771 5771 5772 5772 5772 5772 5772 5771 5771 5771 5771 5770 5770 5770 5769 5769 5769 5768 5768 5768 5767 5766 5766 5765 5764 5764 5763 5762 5762 5761 5761 5760 5759 5758 5757 5757 5756 5755 5754 5754 5752 5751 5751 5750 5748 5747 5746 5745 5744 5742 5741 5740 5739 5737 5736 5735 5734 5732 5731
5748 5749 5750 5752 5753 5755 5756 5756 5756 5756 5757 5758 5759 5760 5761 5761 5762 5762 5763 5764 5764 5765 5766 5766 5767 5768 5768 5768 5768 5768 5768 5768 5768 5768 5768 5768 5767 5767 5767 5767 5766 5766 5766 5765 5765 5764 5764 5763 5762 5762 5761 5760 5759 5758 5758 5757 5756 5755 5754 5753 5752 5751 5750 5749 5748 5748 5746 5745 5744 5743 5742 5741 5740 5739 5738 5736 5735 5734 5732 5731 5730 5729 5727 5726 5725
5744 5745 5746 5747 5749 5751 5752 5753 5753 5753 5754 5755 5756 5757 5758 5759 5759 5759 5760 5760 5761 5761 5762 5762 5763 5763 5764 5764 5764 5764 5764 5764 5764 5764 5764 5764 5763 5763 5763 5763 5763 5762 5762 5762 5761 5760 5760 5759 5758 5758 5757 5756 5755 5754 5753 5752 5751 5750 5749 5748 5746 5745 5744 5743 5742 5741 5740 5738 5737 5736 5735 5735 5734 5733 5731 5730 5728 5727 5726 5724 5723 5722 5720 5719 5717
5739 5740 5741 5743 5746 5748 5749 5750 5750 5750 5751 5752 5753 5754 5755 5755 5755 5756 5756 5756 5756 5757 5757 5758 5758 5758 5759 5759 5760 5760 5760 5760 5760 5760 5759 5759 5759 5759 5759 5758 5758 5758 5758 5757 5756 5755 5754 5754 5754 5753 5752 5751 5750 5749 5748 5747 5746 5745 5743 5742 5741 5740 5738 5737 5736 5735 5734 5732 5731 5729 5729 5728 5727 5726 5725 5723 5721 5720 5719 5718 5716 5715 5713 5711 5710
5736 5737 5738 5740 5742 5744 5745 5747 5747 5748 5748 5749 5749 5750 5751 5751 5752 5752 5752 5752 5752 5753 5753 5753 5753 5753 5753 5754 5754 5755 5755 5755 5755 5755 5754 5754 5754 5754 5754 5753 5753 5753 5752 5751 5751 5750 5749 5748 5748 5748 5747 5745 5744 5743 5742 5741 5740 5739 5738 5737 5735 5734 5733 5732 5731 5729 5728 5726 5724 5722 5722 5722 5721 5719 5718 5716 5715 5713 5712 5711 5709 5707 5705 5704 5702
5735 5735 5736 5738 5739 5741 5742 5743 5744 5744 5745 5745 5746 5747 5747 5748 5748 5748 5748 5749 5749 5749 5749 5748 5748 5748 5748 5749 5749 5749 5749 5749 5749 5749 5748 5748 5748 5748 5748 5747 5747 5747 5746 5746 5745 5744 5743 5742 5742 5742 5741 5740 5739 5737 5736 5735 5734 5733 5732 5731 5729 5728 5727 5726 5725 5723 5721 5719 5718 5716 5715 5715 5714 5712 5711 5709 5708 5706 5705 5703 5701 5699 5697 5696 5694
5734 5734 5735 5736 5737 5738 5739 5740 5740 5741 5741 5742 5743 5743 5744 5744 5744 5744 5745 5745 5745 5745 5745 5745 5744 5744 5744 5744 5744 5744 5744 5744 5744 5743 5743 5743 5743 5743 5742 5742 5741 5741 5740 5740 5739 5737 5737 5736 5736 5735 5734 5733 5732 5731 5730 5729 5728 5727 5726 5724 5723 5721 5720 5720 5719 5718 5715 5712 5710 5709 5709 5708 5707 5705 5704 5703 5701 5699 5697 5695 5693 5691 5690 5688 5687
5731 5732 5733 5734 5734 5735 5736 5737 5737 5738 5738 5739 5739 5740 5740 5740 5740 5740 5741 5741 5741 5741 5740 5740 5740 5740 5740 5740 5740 5740 5740 5739 5738 5738 5738 5738 5738 5737 5736 5735 5735 5734 5733 5732 5731 5730 5730 5729 5728 5728 5727 5726 5726 5725 5723 5722 5721 5720 5718 5717 5716 5715 5714 5713 5713 5712 5709 5705 5702 5702 5702 5701 5701 5699 5697 5696 5694 5692 5689 5687 5686 5684 5683 5681 5680
5728 5729 5729 5730 5731 5732 5732 5733 5733 5734 5734 5735 5735 5735 5735 5735 5736 5736 5736 5736 5736 5736 5736 5735 5735 5735 5735 5735 5735 5734 5734 5733 5733 5733 5732 5732 5731 5730 5729 5729 5728 5727 5726 5725 5724 5724 5723 5722 5721 5720 5720 5719 5718 5717 5716 5715 5715 5714 5712 5710 5709 5708 5707 5706 5705 5704 5701 5698 5695 5695 5695 5695 5694 5693 5691 5689 5688 5686 5683 5680 5679 5677 5676 5674 5673
5725 5726 5726 5727 5727 5727 5728 5728 5728 5729 5729 5729 5729 5729 5730 5730 5730 5731 5731 5731 5731 5731 5730 5730 5730 5729 5729 5729 5728 5728 5728 5727 5726 5726 5726 5725 5724 5723 5722 5722 5721 5720 5718 5718 5718 5717 5716 5715 5714 5714 5713 5712 5711 5710 5709 5708 5708 5707 5706 5704 5703 5702 5700 5699 5698 5697 5696 5693 5691 5690 5689 5688 5688 5687 5685 5683 5682 5681 5679 5675 5671 5670 5669 5668 5665